Time,TemperatureF,DewpointF,PressureIn,WindDirection,WindDirectionDegrees,WindSpeedMPH,WindSpeedGustMPH,Humidity,HourlyPrecipIn,Conditions,Clouds,dailyrainin,SoftwareType,DateUTC
2013-03-17 00:03:00,62.0,45.0,29.92,SSW,206,1.0,-999.0,53,-99.99,,,-99.99,,2013-03-17 04:03:00,
2013-03-17 00:13:00,62.0,45.0,29.92,SSW,206,1.0,-999.0,53,-99.99,,,-99.99,,2013-03-17 04:13:00,
2013-03-17 00:23:00,63.0,45.0,29.92,SSE,162,1.0,-999.0,52,-99.99,,,-99.99,,2013-03-17 04:23:00,
2013-03-17 00:32:00,62.0,45.0,29.92,SSW,202,1.0,-999.0,53,-99.99,,,-99.99,,2013-03-17 04:32:00,
2013-03-17 00:43:00,62.0,45.0,29.92,SSW,202,1.0,-999.0,53,-99.99,,,-99.99,,2013-03-17 04:43:00,
2013-03-17 00:53:00,60.0,45.0,29.92,SSE,153,1.0,-999.0,57,-99.99,,,-99.99,,2013-03-17 04:53:00,
2013-03-17 01:03:00,59.0,45.0,29.92,SSE,165,1.0,-999.0,59,-99.99,,,-99.99,,2013-03-17 05:03:00,
2013-03-17 01:12:00,59.0,45.0,29.92,SSE,165,1.0,-999.0,59,-99.99,,,-99.99,,2013-03-17 05:12:00,
2013-03-17 01:22:00,59.0,44.0,29.92,SSW,197,2.0,-999.0,58,-99.99,,,-99.99,,2013-03-17 05:22:00,
2013-03-17 01:32:00,58.0,45.0,29.92,SW,223,0.0,-999.0,61,-99.99,,,-99.99,,2013-03-17 05:32:00,
2013-03-17 01:42:00,58.0,45.0,29.92,SW,223,0.0,-999.0,61,-99.99,,,-99.99,,2013-03-17 05:42:00,
2013-03-17 01:52:00,57.0,44.0,29.92,West,279,0.0,-999.0,62,-99.99,,,-99.99,,2013-03-17 05:52:00,
2013-03-17 02:02:00,56.0,44.0,29.92,ENE,67,1.0,-999.0,64,-99.99,,,-99.99,,2013-03-17 06:02:00,
2013-03-17 02:12:00,56.0,44.0,29.92,ENE,67,1.0,-999.0,64,-99.99,,,-99.99,,2013-03-17 06:12:00,
2013-03-17 02:22:00,56.0,44.0,29.93,ESE,121,1.0,-999.0,65,-99.99,,,-99.99,,2013-03-17 06:22:00,
2013-03-17 02:32:00,57.0,45.0,29.92,South,184,1.0,-999.0,63,-99.99,,,-99.99,,2013-03-17 06:32:00,
2013-03-17 02:42:00,57.0,45.0,29.92,South,184,1.0,-999.0,63,-99.99,,,-99.99,,2013-03-17 06:42:00,
2013-03-17 02:52:00,58.0,45.0,29.93,SSW,205,1.0,-999.0,62,-99.99,,,-99.99,,2013-03-17 06:52:00,
2013-03-17 03:02:00,58.0,44.0,29.93,WSW,254,1.0,-999.0,60,-99.99,,,-99.99,,2013-03-17 07:02:00,
2013-03-17 03:12:00,58.0,44.0,29.93,WSW,254,1.0,-999.0,60,-99.99,,,-99.99,,2013-03-17 07:12:00,
2013-03-17 03:22:00,58.0,44.0,29.92,WNW,286,1.0,-999.0,59,-99.99,,,-99.99,,2013-03-17 07:22:00,
2013-03-17 03:32:00,59.0,45.0,29.92,SSE,148,1.0,-999.0,59,-99.99,,,-99.99,,2013-03-17 07:32:00,
2013-03-17 03:42:00,59.0,45.0,29.92,SSE,148,1.0,-999.0,59,-99.99,,,-99.99,,2013-03-17 07:42:00,
2013-03-17 03:52:00,58.0,44.0,29.92,SSW,209,0.0,-999.0,60,-99.99,,,-99.99,,2013-03-17 07:52:00,
2013-03-17 04:03:00,57.0,45.0,29.92,SW,224,0.0,-999.0,64,-99.99,,,-99.99,,2013-03-17 08:03:00,
2013-03-17 04:13:00,57.0,45.0,29.91,SSE,150,1.0,-999.0,64,-99.99,,,-99.99,,2013-03-17 08:13:00,
2013-03-17 04:22:00,57.0,45.0,29.91,SSE,150,1.0,-999.0,64,-99.99,,,-99.99,,2013-03-17 08:22:00,
2013-03-17 04:32:00,58.0,45.0,29.91,ESE,123,1.0,-999.0,63,-99.99,,,-99.99,,2013-03-17 08:32:00,
2013-03-17 04:42:00,58.0,45.0,29.91,ESE,123,1.0,-999.0,63,-99.99,,,-99.99,,2013-03-17 08:42:00,
2013-03-17 04:52:00,58.0,45.0,29.91,SE,141,2.0,-999.0,62,-99.99,,,-99.99,,2013-03-17 08:52:00,
2013-03-17 05:03:00,59.0,45.0,29.90,South,180,1.0,-999.0,60,-99.99,,,-99.99,,2013-03-17 09:03:00,
2013-03-17 05:12:00,59.0,45.0,29.90,South,180,1.0,-999.0,60,-99.99,,,-99.99,,2013-03-17 09:12:00,
2013-03-17 05:22:00,58.0,45.0,29.90,SSW,198,1.0,-999.0,62,-99.99,,,-99.99,,2013-03-17 09:22:00,
2013-03-17 05:32:00,58.0,45.0,29.90,NE,55,1.0,-999.0,62,-99.99,,,-99.99,,2013-03-17 09:32:00,
2013-03-17 05:43:00,58.0,45.0,29.90,NE,55,1.0,-999.0,62,-99.99,,,-99.99,,2013-03-17 09:43:00,
2013-03-17 05:53:00,56.0,44.0,29.91,West,269,0.0,-999.0,64,-99.99,,,-99.99,,2013-03-17 09:53:00,
2013-03-17 06:03:00,56.0,44.0,29.91,WSW,247,1.0,-999.0,65,-99.99,,,-99.99,,2013-03-17 10:03:00,
2013-03-17 06:13:00,56.0,44.0,29.91,WSW,247,1.0,-999.0,65,-99.99,,,-99.99,,2013-03-17 10:13:00,
2013-03-17 06:23:00,56.0,45.0,29.91,West,269,1.0,-999.0,66,-99.99,,,-99.99,,2013-03-17 10:23:00,
2013-03-17 06:33:00,56.0,45.0,29.92,SSW,213,1.0,-999.0,66,-99.99,,,-99.99,,2013-03-17 10:33:00,
2013-03-17 06:42:00,56.0,45.0,29.92,SSW,213,1.0,-999.0,66,-99.99,,,-99.99,,2013-03-17 10:42:00,
2013-03-17 06:52:00,56.0,46.0,29.92,SW,229,2.0,-999.0,68,-99.99,,,-99.99,,2013-03-17 10:52:00,
2013-03-17 07:02:00,55.0,46.0,29.93,South,185,2.0,-999.0,71,-99.99,,,-99.99,,2013-03-17 11:02:00,
2013-03-17 07:12:00,55.0,46.0,29.93,South,185,2.0,-999.0,71,-99.99,,,-99.99,,2013-03-17 11:12:00,
2013-03-17 07:22:00,56.0,47.0,29.93,SW,215,2.0,-999.0,71,-99.99,,,-99.99,,2013-03-17 11:22:00,
2013-03-17 07:32:00,56.0,47.0,29.93,SSW,194,1.0,-999.0,72,-99.99,,,-99.99,,2013-03-17 11:32:00,
2013-03-17 07:42:00,56.0,47.0,29.93,SSW,194,1.0,-999.0,72,-99.99,,,-99.99,,2013-03-17 11:42:00,
2013-03-17 07:52:00,55.0,47.0,29.93,SW,220,2.0,-999.0,74,-99.99,,,-99.99,,2013-03-17 11:52:00,
2013-03-17 08:02:00,56.0,47.0,29.93,West,259,1.0,-999.0,73,-99.99,,,-99.99,,2013-03-17 12:02:00,
2013-03-17 08:12:00,56.0,47.0,29.93,West,259,1.0,-999.0,73,-99.99,,,-99.99,,2013-03-17 12:12:00,
2013-03-17 08:22:00,56.0,48.0,29.94,WSW,246,1.0,-999.0,74,-99.99,,,-99.99,,2013-03-17 12:22:00,
2013-03-17 08:33:00,56.0,48.0,29.94,South,178,0.0,-999.0,75,-99.99,,,-99.99,,2013-03-17 12:33:00,
2013-03-17 08:43:00,56.0,48.0,29.94,South,178,0.0,-999.0,75,-99.99,,,-99.99,,2013-03-17 12:43:00,
2013-03-17 08:52:00,56.0,48.0,29.94,South,182,0.0,-999.0,74,-99.99,,,-99.99,,2013-03-17 12:52:00,
2013-03-17 09:02:00,57.0,49.0,29.95,SSE,163,1.0,-999.0,74,-99.99,,,-99.99,,2013-03-17 13:02:00,
2013-03-17 09:13:00,57.0,49.0,29.95,SSE,163,1.0,-999.0,74,-99.99,,,-99.99,,2013-03-17 13:13:00,
2013-03-17 09:22:00,57.0,49.0,29.95,SE,131,2.0,-999.0,74,-99.99,,,-99.99,,2013-03-17 13:22:00,
2013-03-17 09:32:00,58.0,49.0,29.95,SSE,154,0.0,-999.0,73,-99.99,,,-99.99,,2013-03-17 13:32:00,
2013-03-17 09:42:00,58.0,49.0,29.95,SSE,154,0.0,-999.0,73,-99.99,,,-99.99,,2013-03-17 13:42:00,
2013-03-17 09:52:00,58.0,49.0,29.95,SSE,150,2.0,-999.0,73,-99.99,,,-99.99,,2013-03-17 13:52:00,
2013-03-17 10:02:00,59.0,50.0,29.96,East,79,2.0,-999.0,72,-99.99,,,-99.99,,2013-03-17 14:02:00,
2013-03-17 10:12:00,59.0,50.0,29.96,East,79,2.0,-999.0,72,-99.99,,,-99.99,,2013-03-17 14:12:00,
2013-03-17 10:22:00,60.0,51.0,29.96,NW,317,0.0,-999.0,71,-99.99,,,-99.99,,2013-03-17 14:22:00,
2013-03-17 10:32:00,61.0,51.0,29.96,NNE,27,1.0,-999.0,69,-99.99,,,-99.99,,2013-03-17 14:32:00,
2013-03-17 10:42:00,61.0,51.0,29.96,NNE,27,1.0,-999.0,69,-99.99,,,-99.99,,2013-03-17 14:42:00,
2013-03-17 10:53:00,62.0,51.0,29.96,NNE,28,2.0,-999.0,68,-99.99,,,-99.99,,2013-03-17 14:53:00,
2013-03-17 11:02:00,62.0,51.0,29.96,WNW,290,1.0,-999.0,67,-99.99,,,-99.99,,2013-03-17 15:02:00,
2013-03-17 11:12:00,62.0,51.0,29.96,WNW,290,1.0,-999.0,67,-99.99,,,-99.99,,2013-03-17 15:12:00,
2013-03-17 11:23:00,62.0,51.0,29.96,South,176,2.0,-999.0,67,-99.99,,,-99.99,,2013-03-17 15:23:00,
2013-03-17 11:33:00,63.0,51.0,29.96,East,98,2.0,-999.0,64,-99.99,,,-99.99,,2013-03-17 15:33:00,
2013-03-17 11:43:00,63.0,51.0,29.96,East,98,2.0,-999.0,64,-99.99,,,-99.99,,2013-03-17 15:43:00,
2013-03-17 11:53:00,63.0,50.0,29.95,ESE,110,2.0,-999.0,63,-99.99,,,-99.99,,2013-03-17 15:53:00,
2013-03-17 12:03:00,63.0,50.0,29.95,ESE,102,1.0,-999.0,63,-99.99,,,-99.99,,2013-03-17 16:03:00,
2013-03-17 12:12:00,63.0,50.0,29.95,ESE,102,1.0,-999.0,63,-99.99,,,-99.99,,2013-03-17 16:12:00,
2013-03-17 12:23:00,64.0,51.0,29.95,NE,51,1.0,-999.0,63,-99.99,,,-99.99,,2013-03-17 16:23:00,
2013-03-17 12:33:00,65.0,50.0,29.94,West,277,3.0,-999.0,59,-99.99,,,-99.99,,2013-03-17 16:33:00,
2013-03-17 12:43:00,65.0,50.0,29.94,West,277,3.0,-999.0,59,-99.99,,,-99.99,,2013-03-17 16:43:00,
2013-03-17 12:52:00,65.0,49.0,29.94,West,264,3.0,-999.0,56,-99.99,,,-99.99,,2013-03-17 16:52:00,
2013-03-17 13:02:00,65.0,48.0,29.94,SSW,192,2.0,-999.0,55,-99.99,,,-99.99,,2013-03-17 17:02:00,
2013-03-17 13:12:00,65.0,48.0,29.94,SSW,192,2.0,-999.0,55,-99.99,,,-99.99,,2013-03-17 17:12:00,
2013-03-17 13:22:00,65.0,49.0,29.93,SSE,148,1.0,-999.0,56,-99.99,,,-99.99,,2013-03-17 17:22:00,
2013-03-17 13:33:00,65.0,50.0,29.93,ESE,107,1.0,-999.0,58,-99.99,,,-99.99,,2013-03-17 17:33:00,
2013-03-17 13:42:00,65.0,50.0,29.93,ESE,107,1.0,-999.0,58,-99.99,,,-99.99,,2013-03-17 17:42:00,
2013-03-17 13:53:00,64.0,50.0,29.92,NW,325,1.0,-999.0,60,-99.99,,,-99.99,,2013-03-17 17:53:00,
2013-03-17 14:02:00,64.0,48.0,29.91,North,350,2.0,-999.0,57,-99.99,,,-99.99,,2013-03-17 18:02:00,
2013-03-17 14:12:00,64.0,48.0,29.91,North,350,2.0,-999.0,57,-99.99,,,-99.99,,2013-03-17 18:12:00,
2013-03-17 14:22:00,65.0,50.0,29.91,NNW,338,1.0,-999.0,58,-99.99,,,-99.99,,2013-03-17 18:22:00,
2013-03-17 14:32:00,66.0,49.0,29.90,NNW,340,1.0,-999.0,54,-99.99,,,-99.99,,2013-03-17 18:32:00,
2013-03-17 14:42:00,66.0,49.0,29.90,NNW,340,1.0,-999.0,54,-99.99,,,-99.99,,2013-03-17 18:42:00,
2013-03-17 14:52:00,66.0,46.0,29.89,WNW,286,1.0,-999.0,49,-99.99,,,-99.99,,2013-03-17 18:52:00,
2013-03-17 15:02:00,67.0,48.0,29.89,SW,223,2.0,-999.0,51,-99.99,,,-99.99,,2013-03-17 19:02:00,
2013-03-17 15:12:00,67.0,48.0,29.89,SW,223,2.0,-999.0,51,-99.99,,,-99.99,,2013-03-17 19:12:00,
2013-03-17 15:22:00,66.0,49.0,29.89,NNE,20,2.0,-999.0,55,-99.99,,,-99.99,,2013-03-17 19:22:00,
2013-03-17 15:33:00,65.0,49.0,29.89,NNE,28,2.0,-999.0,57,-99.99,,,-99.99,,2013-03-17 19:33:00,
2013-03-17 15:42:00,65.0,49.0,29.89,NNE,28,2.0,-999.0,57,-99.99,,,-99.99,,2013-03-17 19:42:00,
2013-03-17 15:53:00,65.0,48.0,29.89,West,271,2.0,-999.0,54,-99.99,,,-99.99,,2013-03-17 19:53:00,
2013-03-17 16:02:00,65.0,47.0,29.88,NNE,20,1.0,-999.0,53,-99.99,,,-99.99,,2013-03-17 20:02:00,
2013-03-17 16:12:00,65.0,47.0,29.88,NNE,20,1.0,-999.0,53,-99.99,,,-99.99,,2013-03-17 20:12:00,
2013-03-17 16:22:00,65.0,47.0,29.89,South,171,1.0,-999.0,52,-99.99,,,-99.99,,2013-03-17 20:22:00,
2013-03-17 16:33:00,65.0,47.0,29.88,NNW,348,1.0,-999.0,53,-99.99,,,-99.99,,2013-03-17 20:33:00,
2013-03-17 16:42:00,65.0,47.0,29.88,NNW,348,1.0,-999.0,53,-99.99,,,-99.99,,2013-03-17 20:42:00,
2013-03-17 16:52:00,65.0,48.0,29.88,SSE,150,2.0,-999.0,54,-99.99,,,-99.99,,2013-03-17 20:52:00,
2013-03-17 17:03:00,64.0,48.0,29.88,East,101,2.0,-999.0,56,-99.99,,,-99.99,,2013-03-17 21:03:00,
2013-03-17 17:12:00,64.0,48.0,29.88,East,101,2.0,-999.0,56,-99.99,,,-99.99,,2013-03-17 21:12:00,
2013-03-17 17:22:00,65.0,48.0,29.88,ESE,121,0.0,-999.0,55,-99.99,,,-99.99,,2013-03-17 21:22:00,
2013-03-17 17:33:00,65.0,47.0,29.88,SW,220,2.0,-999.0,53,-99.99,,,-99.99,,2013-03-17 21:33:00,
2013-03-17 17:43:00,65.0,47.0,29.88,SW,220,2.0,-999.0,53,-99.99,,,-99.99,,2013-03-17 21:43:00,
2013-03-17 17:52:00,64.0,46.0,29.88,WNW,284,2.0,-999.0,52,-99.99,,,-99.99,,2013-03-17 21:52:00,
2013-03-17 18:03:00,64.0,45.0,29.88,West,277,1.0,-999.0,51,-99.99,,,-99.99,,2013-03-17 22:03:00,
2013-03-17 18:13:00,64.0,46.0,29.88,NE,54,1.0,-999.0,52,-99.99,,,-99.99,,2013-03-17 22:13:00,
2013-03-17 18:23:00,64.0,46.0,29.88,NE,54,1.0,-999.0,52,-99.99,,,-99.99,,2013-03-17 22:23:00,
2013-03-17 18:33:00,64.0,47.0,29.88,SE,141,0.0,-999.0,53,-99.99,,,-99.99,,2013-03-17 22:33:00,
2013-03-17 18:42:00,64.0,47.0,29.88,SE,141,0.0,-999.0,53,-99.99,,,-99.99,,2013-03-17 22:42:00,
2013-03-17 18:53:00,63.0,47.0,29.88,NNE,25,1.0,-999.0,55,-99.99,,,-99.99,,2013-03-17 22:53:00,
2013-03-17 19:03:00,63.0,48.0,29.88,NW,313,0.0,-999.0,57,-99.99,,,-99.99,,2013-03-17 23:03:00,
2013-03-17 19:12:00,63.0,48.0,29.88,NW,313,0.0,-999.0,57,-99.99,,,-99.99,,2013-03-17 23:12:00,
2013-03-17 19:22:00,63.0,48.0,29.88,West,259,0.0,-999.0,58,-99.99,,,-99.99,,2013-03-17 23:22:00,
2013-03-17 19:33:00,62.0,48.0,29.89,NW,313,0.0,-999.0,60,-99.99,,,-99.99,,2013-03-17 23:33:00,
2013-03-17 19:42:00,62.0,48.0,29.89,NW,313,0.0,-999.0,60,-99.99,,,-99.99,,2013-03-17 23:42:00,
2013-03-17 19:53:00,61.0,48.0,29.89,NW,320,0.0,-999.0,63,-99.99,,,-99.99,,2013-03-17 23:53:00,
2013-03-17 20:03:00,60.0,49.0,29.89,NW,320,0.0,-999.0,66,-99.99,,,-99.99,,2013-03-18 00:03:00,
2013-03-17 20:13:00,60.0,49.0,29.89,NW,320,0.0,-999.0,66,-99.99,,,-99.99,,2013-03-18 00:13:00,
2013-03-17 20:22:00,58.0,48.0,29.90,NW,320,0.0,-999.0,69,-99.99,,,-99.99,,2013-03-18 00:22:00,
2013-03-17 20:33:00,57.0,48.0,29.90,NW,320,0.0,-999.0,71,-99.99,,,-99.99,,2013-03-18 00:33:00,
2013-03-17 20:42:00,57.0,48.0,29.90,NW,320,0.0,-999.0,71,-99.99,,,-99.99,,2013-03-18 00:42:00,
2013-03-17 20:53:00,57.0,48.0,29.91,NW,320,0.0,-999.0,73,-99.99,,,-99.99,,2013-03-18 00:53:00,
2013-03-17 21:02:00,56.0,48.0,29.91,NW,320,0.0,-999.0,74,-99.99,,,-99.99,,2013-03-18 01:02:00,
2013-03-17 21:12:00,56.0,48.0,29.91,NW,320,0.0,-999.0,74,-99.99,,,-99.99,,2013-03-18 01:12:00,
2013-03-17 21:22:00,56.0,48.0,29.88,NW,320,0.0,-999.0,75,-99.99,,,-99.99,,2013-03-18 01:22:00,
2013-03-17 21:32:00,55.0,48.0,29.88,NNW,338,0.0,-999.0,76,-99.99,,,-99.99,,2013-03-18 01:32:00,
2013-03-17 21:42:00,55.0,48.0,29.88,NNW,338,0.0,-999.0,76,-99.99,,,-99.99,,2013-03-18 01:42:00,
2013-03-17 21:52:00,57.0,48.0,29.89,SSE,165,0.0,-999.0,73,-99.99,,,-99.99,,2013-03-18 01:52:00,
2013-03-17 22:02:00,58.0,48.0,29.89,SSE,148,0.0,-999.0,70,-99.99,,,-99.99,,2013-03-18 02:02:00,
2013-03-17 22:12:00,58.0,48.0,29.89,SSE,148,0.0,-999.0,70,-99.99,,,-99.99,,2013-03-18 02:12:00,
2013-03-17 22:22:00,58.0,48.0,29.90,SSE,148,0.0,-999.0,70,-99.99,,,-99.99,,2013-03-18 02:22:00,
2013-03-17 22:32:00,58.0,48.0,29.90,SSW,194,0.0,-999.0,70,-99.99,,,-99.99,,2013-03-18 02:32:00,
2013-03-17 22:42:00,58.0,48.0,29.90,SSW,194,0.0,-999.0,70,-99.99,,,-99.99,,2013-03-18 02:42:00,
2013-03-17 22:52:00,58.0,48.0,29.90,SSE,163,0.0,-999.0,70,-99.99,,,-99.99,,2013-03-18 02:52:00,
2013-03-17 23:03:00,58.0,49.0,29.90,SSW,194,1.0,-999.0,71,-99.99,,,-99.99,,2013-03-18 03:03:00,
2013-03-17 23:12:00,58.0,49.0,29.90,SSW,194,1.0,-999.0,71,-99.99,,,-99.99,,2013-03-18 03:12:00,
2013-03-17 23:22:00,57.0,48.0,29.91,SSE,153,1.0,-999.0,71,-99.99,,,-99.99,,2013-03-18 03:22:00,
2013-03-17 23:33:00,57.0,48.0,29.91,SW,236,1.0,-999.0,72,-99.99,,,-99.99,,2013-03-18 03:33:00,
2013-03-17 23:42:00,57.0,48.0,29.91,SW,236,1.0,-999.0,72,-99.99,,,-99.99,,2013-03-18 03:42:00,
2013-03-17 23:53:00,57.0,48.0,29.90,South,191,1.0,-999.0,73,-99.99,,,-99.99,,2013-03-18 03:53:00,